BEIDOU-2 G6 (C02)

Last updated on Mon Oct 20 2025 00:03:24 GMT+0000 (Coordinated Universal Time)

1 38953U 12059A 25292.06988966 -.00000176 00000+0 00000+0 0 9990 2 38953 3.8066 76.0370 0006333 301.9626 119.0545 1.00272544 47492
UTC large
Height (km)
Speed (km/s)
/
Latitude / Longitude
Inclination (degrees)
Orbital Period (minutes)
Azimuth
Elevation
Range (km)
Doppler Factor

Next 0 passes for location: London (51.5072 / 0.1276)

Sorry there are no passes over London.